This is the latest recevied weather packets stored in our database for station/object N0KWA. If no packets are shown the sender has not sent any weather packets the latest 10 day(s).
| Time | Temp. | Humidity | Pressure | Rain* | Wind** | Luminosity | Snow |
|---|---|---|---|---|---|---|---|
| 1777837739 | 23.89° C | 41% | 1022.1 hPa | 0 mm | - | 32 W/m² | - |
| 1777837435 | 23.89° C | 42% | 1022.1 hPa | 0 mm | - | 34 W/m² | - |
| 1777837131 | 24.44° C | 43% | 1022.3 hPa | 0 mm | - | 89 W/m² | - |
| 1777836827 | 23.89° C | 42% | 1022.3 hPa | 0 mm | - | 32 W/m² | - |
| 1777836523 | 23.89° C | 40% | 1022.4 hPa | 0 mm | - | 31 W/m² | - |
| 1777836219 | 23.89° C | 43% | 1022.6 hPa | 0 mm | - | 34 W/m² | - |
| 1777835915 | 23.89° C | 44% | 1022.5 hPa | 0 mm | - | 30 W/m² | - |
| 1777835612 | 23.89° C | 42% | 1022.4 hPa | 0 mm | - | 55 W/m² | - |
| 1777835309 | 23.89° C | 42% | 1022.6 hPa | 0 mm | - | 94 W/m² | - |
| 1777835006 | 23.89° C | 44% | 1022.8 hPa | 0 mm | - | 31 W/m² | - |
| 1777834703 | 23.89° C | 41% | 1022.8 hPa | 0 mm | - | 65 W/m² | - |
| 1777834400 | 23.89° C | 39% | 1022.9 hPa | 0 mm | - | 40 W/m² | - |
| 1777834100 | 23.89° C | 41% | 1023 hPa | 0 mm | - | 48 W/m² | - |
| 1777833796 | 23.89° C | 41% | 1023 hPa | 0 mm | - | 684 W/m² | - |
| 1777833492 | 23.89° C | 44% | 1023.1 hPa | 0 mm | - | 35 W/m² | - |
| 1777833189 | 23.89° C | 43% | 1023.1 hPa | 0 mm | - | 35 W/m² | - |
| 1777832886 | 23.89° C | 41% | 1023.2 hPa | 0 mm | - | 38 W/m² | - |
| 1777832586 | 23.33° C | 40% | 1023.4 hPa | 0 mm | - | 782 W/m² | - |
| 1777832282 | 23.89° C | 42% | 1023.4 hPa | 0 mm | - | 851 W/m² | - |
| 1777831979 | 23.33° C | 41% | 1023.5 hPa | 0 mm | - | 875 W/m² | - |
| 1777831675 | 23.33° C | 44% | 1023.6 hPa | 0 mm | - | 865 W/m² | - |
| 1777831374 | 23.33° C | 45% | 1023.3 hPa | 0 mm | - | 842 W/m² | - |
| 1777831069 | 23.33° C | 45% | 1023.6 hPa | 0 mm | - | 868 W/m² | - |
| 1777830768 | 23.33° C | 42% | 1023.4 hPa | 0 mm | - | 354 W/m² | - |
| 1777830463 | 22.78° C | 48% | 1023.6 hPa | 0 mm | - | 221 W/m² | - |
* Rain latest hour (hover to see other rain measurements)
** Current wind speed in m/s (hover to see current wind gust speed)